Regional Weather Roundup
Issued by NWS Mt. Holly, NJ

Home | Current Version | Previous Version | Text Only | Print | Product List | Glossary On
Versions: 1 2 3 4 5 6 7 8 9 10 11 12 13 14 15 16 17 18 19 20 21 22 23 24 25 26 27 28 29 30 31 32 33 34 35 36 37 38 39 40 41 42 43 44 45 46 47 48
000
ASUS41 KPHI 312312
RWRPHI

REGIONAL WEATHER ROUNDUP
NATIONAL WEATHER SERVICE MOUNT HOLLY NJ
700 PM EDT FRI JUL 31 2015

NOTE:  "FAIR" INDICATES FEW OR NO CLOUDS BELOW 12,000 FEET WITH NO
SIGNIFICANT WEATHER AND/OR OBSTRUCTIONS TO VISIBILITY.

 * = STATION DOES NOT REPORT PRECIPITATION (E.G. RAIN, SNOW, ETC.)
        OR FOG.

NJZ015>026-010000-
SOUTHERN NEW JERSEY

CITY           SKY/WX    TMP DP  RH WIND       PRES   REMARKS
POMONA         SUNNY     86  60  41 W7        29.82F
RIO GRANDE*    SUNNY     84  64  51 W6        29.84S
MILLVILLE      SUNNY     86  60  41 W8        29.83F
WRIGHTSTOWN    SUNNY     85  60  41 NW7       29.79S
MOUNT HOLLY    SUNNY     86  57  37 W7        29.81F
TRENTON        SUNNY     87  56  34 W6        29.81F

$$
NJZ001>014-010000-
NORTHERN NEW JERSEY

CITY           SKY/WX    TMP DP  RH WIND       PRES   REMARKS
SUSSEX         SUNNY     83  62  49 CALM      29.82F
ANDOVER*         N/A     81  62  52 CALM      29.83F
MORRISTOWN     MOSUNNY   86  54  32 NW3       29.81F
NEWARK         MOSUNNY   89  49  25 W13G20    29.79F
TETERBORO      SUNNY     87  51  28 W3        29.78F
CALDWELL       SUNNY     87  51  28 W5        29.80F
SOMERVILLE     SUNNY     87  56  34 W3        29.79F
ALLAIRE*       SUNNY     86  55  35 NW6       29.81F
TOMS RIVER*      N/A     88  57  35 NW7       29.81F

$$
PAZ043-044-047-054-055-060>062-066>071-010000-
EASTERN PENNSYLVANIA

CITY           SKY/WX    TMP DP  RH WIND       PRES   REMARKS
PHILADELPHIA   MOSUNNY   89  54  30 NW12      29.83S
NORTH PHILA    SUNNY     88  52  29 W12       29.83F
BLUE BELL      SUNNY     84  59  42 W3        29.83S
DOYLESTOWN     SUNNY     83  56  39 SW5       29.83S
QUAKERTOWN*    SUNNY     84  59  42 W6        29.85S
POTTSTOWN      SUNNY     83  58  42 W7        29.85F
LANCASTER      SUNNY     83  59  44 W9        29.84F
COATESVILLE    SUNNY     81  59  47 SW3       29.87S
READING        SUNNY     84  60  44 W6        29.83F
ALLENTOWN      SUNNY     83  59  44 W8        29.83S
MOUNT POCONO   SUNNY     77  56  48 W8        29.90F
HAZLETON       SUNNY     79  55  44 CALM      29.91F
WILKES BARRE   MOSUNNY   84  56  38 W10       29.83F

$$
DEZALL-MDZ008-012-015-019-020-010000-
DELAWARE AND EASTERN MARYLAND

CITY           SKY/WX    TMP DP  RH WIND       PRES   REMARKS
WILMINGTON     SUNNY     85  61  44 W9        29.84F
DOVER          SUNNY     85  62  46 NW7       29.83S
GEORGETOWN     SUNNY     86  59  39 NW5       29.85S
EASTON         SUNNY     86  63  45 CALM      29.88F
PATUXENT       MOSUNNY   84  63  49 W10       29.84F
OCEAN CITY     SUNNY     82  61  48 SW5       29.85S
WALLOPS ISLAND SUNNY     82  66  58 SE7       29.86S
CAMBRIDGE      SUNNY     84  61  45 CALM      29.84F
SALISBURY      SUNNY     85  62  46 NW7       29.85S

$$
PAZ001-021-NYZ056-072-MDZ011-DCZ001-010000-
OTHER NEARBY LOCATIONS

CITY           SKY/WX    TMP DP  RH WIND       PRES   REMARKS
HARRISBURG     MOSUNNY   85  62  46 SW5       29.83F
STATE COLLEGE  SUNNY     77  61  57 W9        29.87F
WILLIAMSPORT   MOSUNNY   95  59  30 SW8       29.80F HX  94
BINGHAMTON     PTSUNNY   75  59  57 SW6       29.85S
NEW YORK CITY  SUNNY     86  50  28 CALM      29.82F
BALTIMORE      MOSUNNY   87  59  38 NW7       29.84F
WASHINGTON DC  MOSUNNY   90  60  36 N8        29.86F

$$


USA.gov is the U.S. government's official web portal to all federal, state and local government web resources and services.